C/2019 A9 ( PanSTARRS )

Japanese version
Home page
Updated on November 10, 2019

---------------------------------------------------------------------

* Profile

Discovery Date January 14, 2019
Magnitude 20.3 mag
Discoverer Pan-STARRS 1 telescope (Haleakala)

* Pictures

* Orbital Elements

Epoch 2019 July 16.0 TT = JDT 2458680.5
T 2019 July 26.52559 TT                                 Williams
q   1.4263971            (2000.0)            P               Q
z  +0.0257938      Peri.  237.80141     -0.16009763     +0.07117697
 +/-0.0000000      Node   278.36851     +0.80750023     -0.56420319
e   0.9632078      Incl.   84.34153     -0.56772540     -0.82256222
From 174 observations 2018 Dec. 18-2019 Oct. 3, mean residual 0".4.

* Finding Charts

* Magnitudes Graph

        m1 = 6.0 + 5 log d + 28.0 log r

---------------------------------------------------------------------

The orbital elements are published on M.P.E.C. 2019-V116.
The charts are made with StellaNavigator Ver.10 (AstroArts).
The magnitudes graphs are made with Comet for Windows.

---------------------------------------------------------------------

Copyright(C) Seiichi Yoshida (comet@aerith.net). All rights reserved.